Time,TemperatureF,DewpointF,PressureIn,WindDirection,WindDirectionDegrees,WindSpeedMPH,WindSpeedGustMPH,Humidity,HourlyPrecipIn,Conditions,Clouds,dailyrainin,SoftwareType,DateUTC
2013-03-02 00:00:00,36.1,24.0,29.91,NNW,338,4.0,5.0,61,0.00,,---,0.00,VWS V14.01,2013-03-02 05:00:00,
2013-03-02 00:05:00,36.1,24.0,29.91,NNW,340,4.0,10.0,61,0.00,,---,0.00,VWS V14.01,2013-03-02 05:05:00,
2013-03-02 00:10:00,36.1,24.0,29.91,North,355,4.0,10.0,61,0.00,,---,0.00,VWS V14.01,2013-03-02 05:10:00,
2013-03-02 00:15:00,36.1,24.4,29.91,NNW,342,3.0,10.0,62,0.00,,---,0.00,VWS V14.01,2013-03-02 05:15:00,
2013-03-02 00:20:00,36.0,23.9,29.91,NNW,327,3.0,10.0,61,0.00,,---,0.00,VWS V14.01,2013-03-02 05:20:00,
2013-03-02 00:25:00,36.0,23.9,29.91,NNW,337,3.0,10.0,61,0.00,,---,0.00,VWS V14.01,2013-03-02 05:25:00,
2013-03-02 00:30:00,36.0,24.3,29.91,NNW,338,4.0,7.0,62,0.00,,---,0.00,VWS V14.01,2013-03-02 05:30:00,
2013-03-02 00:35:00,35.9,24.2,29.90,NW,323,2.0,8.0,62,0.00,,---,0.00,VWS V14.01,2013-03-02 05:35:00,
2013-03-02 00:40:00,35.9,24.2,29.90,NW,309,1.0,8.0,62,0.00,,---,0.00,VWS V14.01,2013-03-02 05:40:00,
2013-03-02 00:45:00,35.8,24.5,29.90,NNW,346,3.0,8.0,63,0.00,,---,0.00,VWS V14.01,2013-03-02 05:45:00,
2013-03-02 00:50:00,35.7,24.4,29.90,NNW,331,5.0,8.0,63,0.00,,---,0.00,VWS V14.01,2013-03-02 05:50:00,
2013-03-02 00:55:00,35.7,24.4,29.90,NW,325,4.0,8.0,63,0.00,,---,0.00,VWS V14.01,2013-03-02 05:55:00,
2013-03-02 01:00:00,35.6,24.3,29.91,NW,323,5.0,10.0,63,0.00,,---,0.00,VWS V14.01,2013-03-02 06:00:00,
2013-03-02 01:05:00,35.6,24.6,29.91,NW,320,4.0,10.0,64,0.00,,---,0.00,VWS V14.01,2013-03-02 06:05:00,
2013-03-02 01:10:00,35.6,24.6,29.91,NW,320,2.0,10.0,64,0.00,,---,0.00,VWS V14.01,2013-03-02 06:10:00,
2013-03-02 01:15:00,35.5,24.5,29.91,NNW,331,3.0,10.0,64,0.00,,---,0.00,VWS V14.01,2013-03-02 06:15:00,
2013-03-02 01:20:00,35.5,24.9,29.91,WNW,286,2.0,10.0,65,0.00,,---,0.00,VWS V14.01,2013-03-02 06:20:00,
2013-03-02 01:25:00,35.5,24.9,29.91,WNW,286,2.0,10.0,65,0.00,,---,0.00,VWS V14.01,2013-03-02 06:25:00,
2013-03-02 01:30:00,35.4,24.8,29.91,NNE,13,0.0,5.0,65,0.00,,---,0.00,VWS V14.01,2013-03-02 06:30:00,
2013-03-02 01:35:00,35.4,24.8,29.91,NW,314,0.0,6.0,65,0.00,,---,0.00,VWS V14.01,2013-03-02 06:35:00,
2013-03-02 01:40:00,35.4,24.8,29.91,NW,314,1.0,6.0,65,0.00,,---,0.00,VWS V14.01,2013-03-02 06:40:00,
2013-03-02 01:45:00,35.3,24.7,29.91,NNW,340,2.0,6.0,65,0.00,,---,0.00,VWS V14.01,2013-03-02 06:45:00,
2013-03-02 01:50:00,35.2,24.6,29.91,NNW,340,4.0,6.0,65,0.00,,---,0.00,VWS V14.01,2013-03-02 06:50:00,
2013-03-02 01:55:00,35.3,24.4,29.91,NE,36,2.0,9.0,64,0.00,,---,0.00,VWS V14.01,2013-03-02 06:55:00,
2013-03-02 02:00:00,35.3,24.7,29.91,North,355,3.0,5.0,65,0.00,,---,0.00,VWS V14.01,2013-03-02 07:00:00,
2013-03-02 02:05:00,35.3,24.4,29.90,North,355,0.0,5.0,64,0.00,,---,0.00,VWS V14.01,2013-03-02 07:05:00,
2013-03-02 02:10:00,35.2,24.3,29.90,North,355,8.0,9.0,64,0.00,,---,0.00,VWS V14.01,2013-03-02 07:10:00,
2013-03-02 02:15:00,35.2,24.3,29.90,NNW,340,0.0,9.0,64,0.00,,---,0.00,VWS V14.01,2013-03-02 07:15:00,
2013-03-02 02:20:00,35.2,24.3,29.90,ENE,57,0.0,9.0,64,0.00,,---,0.00,VWS V14.01,2013-03-02 07:20:00,
2013-03-02 02:25:00,35.2,24.3,29.90,NNW,334,2.0,9.0,64,0.00,,---,0.00,VWS V14.01,2013-03-02 07:25:00,
2013-03-02 02:30:00,35.1,23.8,29.90,North,350,4.0,4.0,63,0.00,,---,0.00,VWS V14.01,2013-03-02 07:30:00,
2013-03-02 02:35:00,35.1,23.8,29.90,NNW,329,2.0,6.0,63,0.00,,---,0.00,VWS V14.01,2013-03-02 07:35:00,
2013-03-02 02:40:00,35.0,23.7,29.90,NNW,329,3.0,6.0,63,0.00,,---,0.00,VWS V14.01,2013-03-02 07:40:00,
2013-03-02 02:45:00,35.0,23.7,29.90,NNW,329,1.0,6.0,63,0.00,,---,0.00,VWS V14.01,2013-03-02 07:45:00,
2013-03-02 02:50:00,35.0,23.7,29.90,North,355,1.0,6.0,63,0.00,,---,0.00,VWS V14.01,2013-03-02 07:50:00,
2013-03-02 02:55:00,35.0,23.3,29.90,North,351,6.0,10.0,62,0.00,,---,0.00,VWS V14.01,2013-03-02 07:55:00,
2013-03-02 03:00:00,35.0,23.3,29.90,NNW,331,1.0,4.0,62,0.00,,---,0.00,VWS V14.01,2013-03-02 08:00:00,
2013-03-02 03:05:00,35.0,22.9,29.90,NNW,342,9.0,9.0,61,0.00,,---,0.00,VWS V14.01,2013-03-02 08:05:00,
2013-03-02 03:10:00,35.0,22.9,29.90,NW,317,5.0,12.0,61,0.00,,---,0.00,VWS V14.01,2013-03-02 08:10:00,
2013-03-02 03:15:00,35.0,22.9,29.90,NW,306,2.0,12.0,61,0.00,,---,0.00,VWS V14.01,2013-03-02 08:15:00,
2013-03-02 03:20:00,35.0,22.9,29.90,North,355,6.0,12.0,61,0.00,,---,0.00,VWS V14.01,2013-03-02 08:20:00,
2013-03-02 03:25:00,34.9,22.8,29.90,WNW,300,5.0,12.0,61,0.00,,---,0.00,VWS V14.01,2013-03-02 08:25:00,
2013-03-02 03:30:00,34.9,22.8,29.90,WNW,286,9.0,10.0,61,0.00,,---,0.00,VWS V14.01,2013-03-02 08:30:00,
2013-03-02 03:35:00,34.9,22.8,29.90,NNW,327,3.0,10.0,61,0.00,,---,0.00,VWS V14.01,2013-03-02 08:35:00,
2013-03-02 03:40:00,34.8,22.7,29.90,NW,319,2.0,10.0,61,0.00,,---,0.00,VWS V14.01,2013-03-02 08:40:00,
2013-03-02 03:45:00,34.8,23.1,29.90,NW,308,5.0,10.0,62,0.00,,---,0.00,VWS V14.01,2013-03-02 08:45:00,
2013-03-02 03:50:00,34.8,22.7,29.90,NNW,331,3.0,10.0,61,0.00,,---,0.00,VWS V14.01,2013-03-02 08:50:00,
2013-03-02 03:55:00,34.7,23.0,29.90,NNW,331,3.0,10.0,62,0.00,,---,0.00,VWS V14.01,2013-03-02 08:55:00,
2013-03-02 04:00:00,34.7,23.0,29.89,NW,323,4.0,4.0,62,0.00,,---,0.00,VWS V14.01,2013-03-02 09:00:00,
2013-03-02 04:05:00,34.6,22.5,29.89,NNW,338,1.0,7.0,61,0.00,,---,0.00,VWS V14.01,2013-03-02 09:05:00,
2013-03-02 04:10:00,34.6,22.9,29.88,North,5,2.0,7.0,62,0.00,,---,0.00,VWS V14.01,2013-03-02 09:10:00,
2013-03-02 04:15:00,34.5,22.5,29.88,North,355,4.0,10.0,61,0.00,,---,0.00,VWS V14.01,2013-03-02 09:15:00,
2013-03-02 04:20:00,34.5,22.5,29.88,NNW,348,0.0,10.0,61,0.00,,---,0.00,VWS V14.01,2013-03-02 09:20:00,
2013-03-02 04:25:00,34.4,22.4,29.88,NNE,20,0.0,10.0,61,0.00,,---,0.00,VWS V14.01,2013-03-02 09:25:00,
2013-03-02 04:30:00,34.3,22.3,29.88,North,360,3.0,6.0,61,0.00,,---,0.00,VWS V14.01,2013-03-02 09:30:00,
2013-03-02 04:35:00,34.3,22.3,29.88,NNW,346,0.0,6.0,61,0.00,,---,0.00,VWS V14.01,2013-03-02 09:35:00,
2013-03-02 04:40:00,34.2,22.5,29.88,North,5,1.0,6.0,62,0.00,,---,0.00,VWS V14.01,2013-03-02 09:40:00,
2013-03-02 04:45:00,34.1,22.5,29.89,NE,36,2.0,6.0,62,0.00,,---,0.00,VWS V14.01,2013-03-02 09:45:00,
2013-03-02 04:50:00,34.0,22.4,29.88,North,355,4.0,6.0,62,0.00,,---,0.00,VWS V14.01,2013-03-02 09:50:00,
2013-03-02 04:55:00,34.0,22.4,29.88,NNW,342,2.0,6.0,62,0.00,,---,0.00,VWS V14.01,2013-03-02 09:55:00,
2013-03-02 05:00:00,33.9,22.3,29.88,North,355,1.0,4.0,62,0.00,,---,0.00,VWS V14.01,2013-03-02 10:00:00,
2013-03-02 05:05:00,33.9,22.3,29.88,North,355,0.0,4.0,62,0.00,,---,0.00,VWS V14.01,2013-03-02 10:05:00,
2013-03-02 05:10:00,33.9,22.6,29.88,North,355,0.0,4.0,63,0.00,,---,0.00,VWS V14.01,2013-03-02 10:10:00,
2013-03-02 05:15:00,33.8,22.5,29.88,North,355,1.0,4.0,63,0.00,,---,0.00,VWS V14.01,2013-03-02 10:15:00,
2013-03-02 05:20:00,33.7,22.5,29.88,North,355,1.0,4.0,63,0.00,,---,0.00,VWS V14.01,2013-03-02 10:20:00,
2013-03-02 05:25:00,33.7,22.5,29.88,North,355,1.0,4.0,63,0.00,,---,0.00,VWS V14.01,2013-03-02 10:25:00,
2013-03-02 05:30:00,33.7,22.5,29.88,North,355,0.0,0.0,63,0.00,,---,0.00,VWS V14.01,2013-03-02 10:30:00,
2013-03-02 05:36:00,33.7,22.5,29.88,North,355,2.0,4.0,63,0.00,,---,0.00,VWS V14.01,2013-03-02 10:36:00,
2013-03-02 05:41:00,33.7,22.5,29.88,NNW,340,2.0,5.0,63,0.00,,---,0.00,VWS V14.01,2013-03-02 10:41:00,
2013-03-02 05:46:00,33.7,22.8,29.88,NNW,340,2.0,5.0,64,0.00,,---,0.00,VWS V14.01,2013-03-02 10:46:00,
2013-03-02 05:51:00,33.8,22.5,29.88,North,355,1.0,8.0,63,0.00,,---,0.00,VWS V14.01,2013-03-02 10:51:00,
2013-03-02 05:56:00,33.8,22.5,29.88,NNW,337,0.0,8.0,63,0.00,,---,0.00,VWS V14.01,2013-03-02 10:56:00,
2013-03-02 06:00:00,33.7,22.8,29.89,NNW,329,2.0,7.0,64,0.00,,---,0.00,VWS V14.01,2013-03-02 11:00:00,
2013-03-02 06:01:00,33.8,24.0,29.88,NNW,337,1.0,4.0,67,0.00,,---,0.00,VWS V14.01,2013-03-02 11:01:00,
2013-03-02 06:06:00,33.8,22.9,29.88,NNW,346,4.0,6.0,64,0.00,,---,0.00,VWS V14.01,2013-03-02 11:06:00,
2013-03-02 06:11:00,33.8,22.5,29.88,NNW,346,2.0,6.0,63,0.00,,---,0.00,VWS V14.01,2013-03-02 11:11:00,
2013-03-02 06:16:00,33.8,24.4,29.88,NNW,327,3.0,6.0,68,0.00,,---,0.00,VWS V14.01,2013-03-02 11:16:00,
2013-03-02 06:21:00,33.8,22.5,29.88,NNW,327,2.0,6.0,63,0.00,,---,0.00,VWS V14.01,2013-03-02 11:21:00,
2013-03-02 06:26:00,33.8,22.9,29.88,NNW,327,4.0,6.0,64,0.00,,---,0.00,VWS V14.01,2013-03-02 11:26:00,
2013-03-02 06:30:00,33.9,23.0,29.89,North,355,3.0,8.0,64,0.00,,---,0.00,VWS V14.01,2013-03-02 11:30:00,
2013-03-02 06:31:00,33.7,22.8,29.88,NNW,327,1.0,3.0,64,0.00,,---,0.00,VWS V14.01,2013-03-02 11:31:00,
2013-03-02 06:36:00,33.8,22.9,29.88,NW,306,6.0,7.0,64,0.00,,---,0.00,VWS V14.01,2013-03-02 11:36:00,
2013-03-02 06:41:00,33.8,22.9,29.88,NNW,329,2.0,7.0,64,0.00,,---,0.00,VWS V14.01,2013-03-02 11:41:00,
2013-03-02 06:46:00,33.8,22.9,29.88,NNW,329,1.0,7.0,64,0.00,,---,0.00,VWS V14.01,2013-03-02 11:46:00,
2013-03-02 06:51:00,33.8,22.9,29.88,NNW,329,2.0,7.0,64,0.00,,---,0.00,VWS V14.01,2013-03-02 11:51:00,
2013-03-02 06:56:00,33.7,23.2,29.88,NNW,329,2.0,7.0,65,0.00,,---,0.00,VWS V14.01,2013-03-02 11:56:00,
2013-03-02 07:00:00,34.2,22.9,29.90,NNE,27,3.0,10.0,63,0.00,,---,0.00,VWS V14.01,2013-03-02 12:00:00,
2013-03-02 07:01:00,33.7,22.8,29.88,North,351,3.0,4.0,64,0.00,,---,0.00,VWS V14.01,2013-03-02 12:01:00,
2013-03-02 07:06:00,33.7,22.8,29.89,NNW,342,5.0,7.0,64,0.00,,---,0.00,VWS V14.01,2013-03-02 12:06:00,
2013-03-02 07:11:00,33.7,22.8,29.89,NNW,336,3.0,7.0,64,0.00,,---,0.00,VWS V14.01,2013-03-02 12:11:00,
2013-03-02 07:16:00,33.8,22.9,29.89,NNW,336,3.0,7.0,64,0.00,,---,0.00,VWS V14.01,2013-03-02 12:16:00,
2013-03-02 07:21:00,33.8,24.4,29.89,NW,319,2.0,7.0,68,0.00,,---,0.00,VWS V14.01,2013-03-02 12:21:00,
2013-03-02 07:26:00,33.8,22.9,29.89,North,355,6.0,8.0,64,0.00,,---,0.00,VWS V14.01,2013-03-02 12:26:00,
2013-03-02 07:30:00,34.4,23.5,29.90,North,355,2.0,12.0,64,0.00,,---,0.00,VWS V14.01,2013-03-02 12:30:00,
2013-03-02 07:31:00,33.9,23.0,29.89,North,350,4.0,4.0,64,0.00,,---,0.00,VWS V14.01,2013-03-02 12:31:00,
2013-03-02 07:36:00,34.0,23.1,29.89,NNW,327,5.0,9.0,64,0.00,,---,0.00,VWS V14.01,2013-03-02 12:36:00,
2013-03-02 07:41:00,34.0,23.1,29.89,North,360,5.0,9.0,64,0.00,,---,0.00,VWS V14.01,2013-03-02 12:41:00,
2013-03-02 07:46:00,34.1,23.2,29.89,NNW,335,4.0,9.0,64,0.00,,---,0.00,VWS V14.01,2013-03-02 12:46:00,
2013-03-02 07:51:00,34.1,23.2,29.89,NNW,337,5.0,9.0,64,0.00,,---,0.00,VWS V14.01,2013-03-02 12:51:00,
2013-03-02 07:56:00,34.2,23.3,29.90,North,10,7.0,10.0,64,0.00,,---,0.00,VWS V14.01,2013-03-02 12:56:00,
2013-03-02 08:00:00,34.4,22.7,29.91,North,360,2.0,11.0,62,0.00,,---,0.00,VWS V14.01,2013-03-02 13:00:00,
2013-03-02 08:01:00,34.2,22.9,29.90,NNW,335,6.0,8.0,63,0.00,,---,0.00,VWS V14.01,2013-03-02 13:01:00,
2013-03-02 08:06:00,34.2,22.9,29.90,NE,35,6.0,9.0,63,0.00,,---,0.00,VWS V14.01,2013-03-02 13:06:00,
2013-03-02 08:11:00,34.3,23.0,29.90,NNE,15,7.0,10.0,63,0.00,,---,0.00,VWS V14.01,2013-03-02 13:11:00,
2013-03-02 08:16:00,34.3,23.0,29.90,North,360,6.0,12.0,63,0.00,,---,0.00,VWS V14.01,2013-03-02 13:16:00,
2013-03-02 08:21:00,34.3,23.0,29.90,NW,317,0.0,12.0,63,0.00,,---,0.00,VWS V14.01,2013-03-02 13:21:00,
2013-03-02 08:26:00,34.4,23.1,29.90,North,5,2.0,12.0,63,0.00,,---,0.00,VWS V14.01,2013-03-02 13:26:00,
2013-03-02 08:30:00,34.6,23.3,29.90,North,9,2.0,10.0,63,0.00,,---,0.00,VWS V14.01,2013-03-02 13:30:00,
2013-03-02 08:31:00,34.4,23.1,29.91,NNE,26,2.0,7.0,63,0.00,,---,0.00,VWS V14.01,2013-03-02 13:31:00,
2013-03-02 08:36:00,34.4,23.5,29.90,North,11,5.0,10.0,64,0.00,,---,0.00,VWS V14.01,2013-03-02 13:36:00,
2013-03-02 08:41:00,34.4,23.1,29.90,NW,310,1.0,11.0,63,0.00,,---,0.00,VWS V14.01,2013-03-02 13:41:00,
2013-03-02 08:45:00,34.4,22.7,29.90,WNW,295,5.0,11.0,62,0.00,,---,0.00,VWS V14.01,2013-03-02 13:45:00,
2013-03-02 08:50:00,34.4,23.1,29.90,NNW,332,2.0,11.0,63,0.00,,---,0.00,VWS V14.01,2013-03-02 13:50:00,
2013-03-02 08:55:00,34.5,22.8,29.91,North,355,2.0,11.0,62,0.00,,---,0.00,VWS V14.01,2013-03-02 13:55:00,
2013-03-02 09:00:00,34.4,22.7,29.91,NNW,347,2.0,3.0,62,0.00,,---,0.00,VWS V14.01,2013-03-02 14:00:00,
2013-03-02 09:05:00,34.5,23.2,29.91,NNW,333,3.0,10.0,63,0.00,,---,0.00,VWS V14.01,2013-03-02 14:05:00,
2013-03-02 09:10:00,34.6,22.9,29.91,NW,322,4.0,10.0,62,0.00,,---,0.00,VWS V14.01,2013-03-02 14:10:00,
2013-03-02 09:15:00,34.6,22.9,29.91,NNW,333,3.0,10.0,62,0.00,,---,0.00,VWS V14.01,2013-03-02 14:15:00,
2013-03-02 09:20:00,34.6,23.3,29.91,NW,311,3.0,10.0,63,0.00,,---,0.00,VWS V14.01,2013-03-02 14:20:00,
2013-03-02 09:25:00,34.6,22.9,29.90,NNW,340,5.0,10.0,62,0.00,,---,0.00,VWS V14.01,2013-03-02 14:25:00,
2013-03-02 09:30:00,34.7,23.4,29.90,North,355,3.0,6.0,63,0.00,,---,0.00,VWS V14.01,2013-03-02 14:30:00,
2013-03-02 09:35:00,34.8,23.5,29.90,NNW,339,5.0,9.0,63,0.00,,---,0.00,VWS V14.01,2013-03-02 14:35:00,
2013-03-02 09:40:00,34.9,23.2,29.90,NNW,341,1.0,9.0,62,0.00,,---,0.00,VWS V14.01,2013-03-02 14:40:00,
2013-03-02 09:45:00,34.9,23.6,29.90,NE,36,5.0,11.0,63,0.00,,---,0.00,VWS V14.01,2013-03-02 14:45:00,
2013-03-02 09:50:00,34.8,23.1,29.90,NNW,329,6.0,15.0,62,0.00,,---,0.00,VWS V14.01,2013-03-02 14:50:00,
2013-03-02 09:55:00,34.8,22.7,29.90,NNE,22,5.0,15.0,61,0.00,,---,0.00,VWS V14.01,2013-03-02 14:55:00,
2013-03-02 10:00:00,34.7,23.0,29.90,NNE,17,2.0,11.0,62,0.00,,---,0.00,VWS V14.01,2013-03-02 15:00:00,
2013-03-02 10:05:00,34.8,23.1,29.90,North,360,5.0,11.0,62,0.00,,---,0.00,VWS V14.01,2013-03-02 15:05:00,
2013-03-02 10:10:00,35.0,22.9,29.90,NNE,23,4.0,11.0,61,0.00,,---,0.00,VWS V14.01,2013-03-02 15:10:00,
2013-03-02 10:15:00,35.0,23.3,29.89,NNW,336,3.0,11.0,62,0.00,,---,0.00,VWS V14.01,2013-03-02 15:15:00,
2013-03-02 10:20:00,35.2,23.1,29.89,North,360,4.0,11.0,61,0.00,,---,0.00,VWS V14.01,2013-03-02 15:20:00,
2013-03-02 10:25:00,35.5,23.8,29.89,NNW,333,4.0,11.0,62,0.00,,---,0.00,VWS V14.01,2013-03-02 15:25:00,
2013-03-02 10:30:00,36.4,23.9,29.89,NNW,328,7.0,14.0,60,0.00,,---,0.00,VWS V14.01,2013-03-02 15:30:00,
2013-03-02 10:32:00,35.6,23.5,29.89,North,355,4.0,7.0,61,0.00,,---,0.00,VWS V14.01,2013-03-02 15:32:00,
2013-03-02 10:37:00,35.6,23.5,29.90,NW,313,6.0,13.0,61,0.00,,---,0.00,VWS V14.01,2013-03-02 15:37:00,
2013-03-02 10:42:00,35.7,23.2,29.90,NNW,336,4.0,13.0,60,0.00,,---,0.00,VWS V14.01,2013-03-02 15:42:00,
2013-03-02 10:47:00,35.7,23.6,29.89,NNW,342,8.0,13.0,61,0.00,,---,0.00,VWS V14.01,2013-03-02 15:47:00,
2013-03-02 10:52:00,35.8,23.7,29.89,NNW,341,5.0,13.0,61,0.00,,---,0.00,VWS V14.01,2013-03-02 15:52:00,
2013-03-02 10:57:00,35.9,23.0,29.89,North,360,4.0,13.0,59,0.00,,---,0.00,VWS V14.01,2013-03-02 15:57:00,
2013-03-02 11:00:00,37.1,22.9,29.88,NW,313,6.0,15.0,56,0.00,,---,0.00,VWS V14.01,2013-03-02 16:00:00,
2013-03-02 11:02:00,35.9,23.8,29.89,NNW,327,3.0,9.0,61,0.00,,---,0.00,VWS V14.01,2013-03-02 16:02:00,
2013-03-02 11:07:00,35.9,23.4,29.89,WNW,297,11.0,11.0,60,0.00,,---,0.00,VWS V14.01,2013-03-02 16:07:00,
2013-03-02 11:12:00,35.9,23.0,29.89,West,275,6.0,14.0,59,0.00,,---,0.00,VWS V14.01,2013-03-02 16:12:00,
2013-03-02 11:17:00,35.9,23.4,29.89,NNE,17,5.0,14.0,60,0.00,,---,0.00,VWS V14.01,2013-03-02 16:17:00,
2013-03-02 11:22:00,36.0,23.5,29.89,North,355,7.0,14.0,60,0.00,,---,0.00,VWS V14.01,2013-03-02 16:22:00,
2013-03-02 11:27:00,36.2,24.1,29.89,NNE,27,4.0,14.0,61,0.00,,---,0.00,VWS V14.01,2013-03-02 16:27:00,
2013-03-02 11:30:00,37.3,23.1,29.87,WNW,292,8.0,15.0,56,0.00,,---,0.00,VWS V14.01,2013-03-02 16:30:00,
2013-03-02 11:32:00,36.6,23.6,29.88,NW,314,7.0,10.0,59,0.00,,---,0.00,VWS V14.01,2013-03-02 16:32:00,
2013-03-02 11:37:00,36.9,24.3,29.89,NW,308,9.0,12.0,60,0.00,,---,0.00,VWS V14.01,2013-03-02 16:37:00,
2013-03-02 11:42:00,37.1,23.7,29.89,NNW,327,3.0,12.0,58,0.00,,---,0.00,VWS V14.01,2013-03-02 16:42:00,
2013-03-02 11:47:00,37.1,23.3,29.88,NW,317,8.0,13.0,57,0.00,,---,0.00,VWS V14.01,2013-03-02 16:47:00,
2013-03-02 11:52:00,37.0,22.8,29.88,WNW,291,3.0,15.0,56,0.00,,---,0.00,VWS V14.01,2013-03-02 16:52:00,
2013-03-02 11:57:00,37.1,23.3,29.88,West,268,3.0,15.0,57,0.00,,---,0.00,VWS V14.01,2013-03-02 16:57:00,
2013-03-02 12:00:00,37.5,23.2,29.87,NNW,336,6.0,14.0,56,0.00,,---,0.00,VWS V14.01,2013-03-02 17:00:00,
2013-03-02 12:02:00,37.2,23.0,29.88,NW,321,4.0,8.0,56,0.00,,---,0.00,VWS V14.01,2013-03-02 17:02:00,
2013-03-02 12:07:00,37.4,22.3,29.88,NW,307,7.0,15.0,54,0.00,,---,0.00,VWS V14.01,2013-03-02 17:07:00,
2013-03-02 12:12:00,37.3,22.2,29.88,NW,321,6.0,15.0,54,0.00,,---,0.00,VWS V14.01,2013-03-02 17:12:00,
2013-03-02 12:17:00,37.1,22.4,29.88,NW,320,4.0,15.0,55,0.00,,---,0.00,VWS V14.01,2013-03-02 17:17:00,
2013-03-02 12:22:00,37.1,22.9,29.87,WNW,288,10.0,15.0,56,0.00,,---,0.00,VWS V14.01,2013-03-02 17:22:00,
2013-03-02 12:27:00,37.2,23.4,29.87,NW,311,5.0,15.0,57,0.00,,---,0.00,VWS V14.01,2013-03-02 17:27:00,
2013-03-02 12:30:00,37.2,22.1,29.86,WNW,296,6.0,20.0,54,0.00,,---,0.00,VWS V14.01,2013-03-02 17:30:00,
2013-03-02 12:32:00,37.4,22.7,29.87,WNW,299,8.0,11.0,55,0.00,,---,0.00,VWS V14.01,2013-03-02 17:32:00,
2013-03-02 12:37:00,37.4,22.3,29.87,WNW,288,9.0,14.0,54,0.00,,---,0.00,VWS V14.01,2013-03-02 17:37:00,
2013-03-02 12:42:00,37.4,22.3,29.87,NNW,338,7.0,14.0,54,0.00,,---,0.00,VWS V14.01,2013-03-02 17:42:00,
2013-03-02 12:47:00,37.5,22.8,29.87,North,360,3.0,14.0,55,0.00,,---,0.00,VWS V14.01,2013-03-02 17:47:00,
2013-03-02 12:52:00,37.5,22.4,29.87,WNW,300,6.0,14.0,54,0.00,,---,0.00,VWS V14.01,2013-03-02 17:52:00,
2013-03-02 12:57:00,37.5,22.4,29.87,NW,321,5.0,14.0,54,0.00,,---,0.00,VWS V14.01,2013-03-02 17:57:00,
2013-03-02 13:00:00,36.7,22.1,29.86,NNW,336,7.0,17.0,55,0.00,,---,0.00,VWS V14.01,2013-03-02 18:00:00,
2013-03-02 13:02:00,37.7,23.4,29.86,WNW,302,9.0,11.0,56,0.00,,---,0.00,VWS V14.01,2013-03-02 18:02:00,
2013-03-02 13:07:00,37.7,23.0,29.86,NW,309,3.0,11.0,55,0.00,,---,0.00,VWS V14.01,2013-03-02 18:07:00,
2013-03-02 13:12:00,37.8,22.2,29.86,NW,312,11.0,14.0,53,0.00,,---,0.00,VWS V14.01,2013-03-02 18:12:00,
2013-03-02 13:17:00,37.7,22.1,29.86,NW,317,9.0,14.0,53,0.00,,---,0.00,VWS V14.01,2013-03-02 18:17:00,
2013-03-02 13:22:00,37.5,21.9,29.86,WNW,290,8.0,20.0,53,0.00,,---,0.00,VWS V14.01,2013-03-02 18:22:00,
2013-03-02 13:27:00,37.3,21.8,29.86,NW,316,11.0,20.0,53,0.00,,---,0.00,VWS V14.01,2013-03-02 18:27:00,
2013-03-02 13:30:00,36.5,21.9,29.86,West,281,11.0,17.0,55,0.00,,---,0.00,VWS V14.01,2013-03-02 18:30:00,
2013-03-02 13:32:00,37.1,22.0,29.86,WNW,300,4.0,14.0,54,0.00,,---,0.00,VWS V14.01,2013-03-02 18:32:00,
2013-03-02 13:37:00,37.0,21.9,29.85,West,275,12.0,14.0,54,0.00,,---,0.00,VWS V14.01,2013-03-02 18:37:00,
2013-03-02 13:42:00,36.9,22.7,29.86,NNW,336,11.0,14.0,56,0.00,,---,0.00,VWS V14.01,2013-03-02 18:42:00,
2013-03-02 13:47:00,37.0,22.4,29.85,North,355,7.0,14.0,55,0.00,,---,0.00,VWS V14.01,2013-03-02 18:47:00,
2013-03-02 13:52:00,36.9,22.3,29.85,West,276,14.0,15.0,55,0.00,,---,0.00,VWS V14.01,2013-03-02 18:52:00,
2013-03-02 13:57:00,36.7,21.6,29.86,North,355,6.0,17.0,54,0.00,,---,0.00,VWS V14.01,2013-03-02 18:57:00,
2013-03-02 14:00:00,35.7,20.7,29.86,NW,315,8.0,18.0,54,0.00,,---,0.00,VWS V14.01,2013-03-02 19:00:00,
2013-03-02 14:02:00,36.7,22.1,29.85,NNW,327,10.0,14.0,55,0.00,,---,0.00,VWS V14.01,2013-03-02 19:02:00,
2013-03-02 14:07:00,36.7,21.6,29.85,West,271,15.0,15.0,54,0.00,,---,0.00,VWS V14.01,2013-03-02 19:07:00,
2013-03-02 14:12:00,36.6,21.5,29.85,WNW,292,6.0,17.0,54,0.00,,---,0.00,VWS V14.01,2013-03-02 19:12:00,
2013-03-02 14:17:00,36.6,22.0,29.85,WNW,293,7.0,17.0,55,0.00,,---,0.00,VWS V14.01,2013-03-02 19:17:00,
2013-03-02 14:22:00,36.5,22.3,29.85,NW,314,7.0,17.0,56,0.00,,---,0.00,VWS V14.01,2013-03-02 19:22:00,
2013-03-02 14:27:00,36.6,22.0,29.86,North,355,8.0,17.0,55,0.00,,---,0.00,VWS V14.01,2013-03-02 19:27:00,
2013-03-02 14:30:00,35.5,21.4,29.86,NNW,338,1.0,19.0,56,0.00,,---,0.00,VWS V14.01,2013-03-02 19:30:00,
2013-03-02 14:32:00,36.5,21.9,29.86,NW,325,9.0,12.0,55,0.00,,---,0.00,VWS V14.01,2013-03-02 19:32:00,
2013-03-02 14:37:00,36.3,21.3,29.86,NNW,344,14.0,18.0,54,0.00,,---,0.00,VWS V14.01,2013-03-02 19:37:00,
2013-03-02 14:42:00,36.1,21.5,29.86,NW,324,8.0,18.0,55,0.00,,---,0.00,VWS V14.01,2013-03-02 19:42:00,
2013-03-02 14:47:00,36.0,21.0,29.86,WNW,289,9.0,18.0,54,0.00,,---,0.00,VWS V14.01,2013-03-02 19:47:00,
2013-03-02 14:52:00,35.8,20.8,29.86,NNW,348,9.0,18.0,54,0.00,,---,0.00,VWS V14.01,2013-03-02 19:52:00,
2013-03-02 14:57:00,35.7,21.1,29.86,West,279,13.0,18.0,55,0.00,,---,0.00,VWS V14.01,2013-03-02 19:57:00,
2013-03-02 15:00:00,35.3,20.8,29.87,NNW,327,7.0,14.0,55,0.00,,---,0.00,VWS V14.01,2013-03-02 20:00:00,
2013-03-02 15:02:00,35.7,21.1,29.85,North,360,8.0,17.0,55,0.00,,---,0.00,VWS V14.01,2013-03-02 20:02:00,
2013-03-02 15:07:00,35.6,20.6,29.86,WNW,302,8.0,19.0,54,0.00,,---,0.00,VWS V14.01,2013-03-02 20:07:00,
2013-03-02 15:12:00,35.3,20.8,29.86,NNW,337,8.0,19.0,55,0.00,,---,0.00,VWS V14.01,2013-03-02 20:12:00,
2013-03-02 15:17:00,35.3,20.8,29.86,NNW,339,8.0,19.0,55,0.00,,---,0.00,VWS V14.01,2013-03-02 20:17:00,
2013-03-02 15:22:00,35.5,21.4,29.86,NNW,346,5.0,19.0,56,0.00,,---,0.00,VWS V14.01,2013-03-02 20:22:00,
2013-03-02 15:27:00,35.5,21.0,29.86,NW,305,11.0,19.0,55,0.00,,---,0.00,VWS V14.01,2013-03-02 20:27:00,
2013-03-02 15:30:00,34.4,19.9,29.87,NNE,19,8.0,14.0,55,0.00,,---,0.00,VWS V14.01,2013-03-02 20:30:00,
2013-03-02 15:32:00,35.4,20.9,29.86,NNW,337,12.0,14.0,55,0.00,,---,0.00,VWS V14.01,2013-03-02 20:32:00,
2013-03-02 15:37:00,35.2,21.1,29.86,NNW,339,3.0,14.0,56,0.00,,---,0.00,VWS V14.01,2013-03-02 20:37:00,
2013-03-02 15:42:00,35.3,21.6,29.86,NNW,327,7.0,14.0,57,0.00,,---,0.00,VWS V14.01,2013-03-02 20:42:00,
2013-03-02 15:47:00,35.3,20.8,29.86,North,355,6.0,14.0,55,0.00,,---,0.00,VWS V14.01,2013-03-02 20:47:00,
2013-03-02 15:52:00,35.3,20.8,29.87,WNW,296,10.0,14.0,55,0.00,,---,0.00,VWS V14.01,2013-03-02 20:52:00,
2013-03-02 15:57:00,35.3,21.2,29.87,NW,306,8.0,14.0,56,0.00,,---,0.00,VWS V14.01,2013-03-02 20:57:00,
2013-03-02 16:00:00,34.1,19.6,29.88,NNE,15,6.0,19.0,55,0.00,,---,0.00,VWS V14.01,2013-03-02 21:00:00,
2013-03-02 16:02:00,35.1,21.0,29.87,NNW,346,5.0,11.0,56,0.00,,---,0.00,VWS V14.01,2013-03-02 21:02:00,
2013-03-02 16:07:00,35.0,20.5,29.86,WNW,302,10.0,12.0,55,0.00,,---,0.00,VWS V14.01,2013-03-02 21:07:00,
2013-03-02 16:12:00,34.8,20.3,29.86,WNW,288,7.0,12.0,55,0.00,,---,0.00,VWS V14.01,2013-03-02 21:12:00,
2013-03-02 16:17:00,34.6,20.1,29.87,NNW,329,8.0,13.0,55,0.00,,---,0.00,VWS V14.01,2013-03-02 21:17:00,
2013-03-02 16:22:00,34.5,20.4,29.87,NNW,344,7.0,14.0,56,0.00,,---,0.00,VWS V14.01,2013-03-02 21:22:00,
2013-03-02 16:27:00,34.4,19.9,29.87,NNW,348,5.0,14.0,55,0.00,,---,0.00,VWS V14.01,2013-03-02 21:27:00,
2013-03-02 16:30:00,33.2,19.2,29.89,NW,319,7.0,17.0,56,0.00,,---,0.00,VWS V14.01,2013-03-02 21:30:00,
2013-03-02 16:32:00,34.5,20.4,29.87,NNW,347,5.0,9.0,56,0.00,,---,0.00,VWS V14.01,2013-03-02 21:32:00,
2013-03-02 16:37:00,34.4,19.9,29.87,NW,316,7.0,19.0,55,0.00,,---,0.00,VWS V14.01,2013-03-02 21:37:00,
2013-03-02 16:42:00,34.3,19.8,29.88,WNW,286,7.0,19.0,55,0.00,,---,0.00,VWS V14.01,2013-03-02 21:42:00,
2013-03-02 16:47:00,34.2,19.7,29.88,NNW,329,8.0,19.0,55,0.00,,---,0.00,VWS V14.01,2013-03-02 21:47:00,
2013-03-02 16:52:00,34.1,20.1,29.88,North,355,10.0,19.0,56,0.00,,---,0.00,VWS V14.01,2013-03-02 21:52:00,
2013-03-02 16:57:00,34.1,20.1,29.88,NW,309,9.0,19.0,56,0.00,,---,0.00,VWS V14.01,2013-03-02 21:57:00,
2013-03-02 17:00:00,32.5,19.0,29.90,NW,317,4.0,17.0,57,0.00,,---,0.00,VWS V14.01,2013-03-02 22:00:00,
2013-03-02 17:02:00,34.1,19.6,29.88,NW,315,10.0,13.0,55,0.00,,---,0.00,VWS V14.01,2013-03-02 22:02:00,
2013-03-02 17:07:00,33.9,19.5,29.88,NNW,344,9.0,15.0,55,0.00,,---,0.00,VWS V14.01,2013-03-02 22:07:00,
2013-03-02 17:12:00,33.7,19.7,29.88,NW,310,12.0,15.0,56,0.00,,---,0.00,VWS V14.01,2013-03-02 22:12:00,
2013-03-02 17:17:00,33.5,19.9,29.88,North,360,6.0,15.0,57,0.00,,---,0.00,VWS V14.01,2013-03-02 22:17:00,
2013-03-02 17:22:00,33.4,19.4,29.89,NW,316,7.0,15.0,56,0.00,,---,0.00,VWS V14.01,2013-03-02 22:22:00,
2013-03-02 17:27:00,33.3,19.3,29.89,NW,319,6.0,17.0,56,0.00,,---,0.00,VWS V14.01,2013-03-02 22:27:00,
2013-03-02 17:30:00,32.3,19.2,29.91,NNW,328,6.0,15.0,58,0.00,,---,0.00,VWS V14.01,2013-03-02 22:30:00,
2013-03-02 17:32:00,33.1,19.1,29.89,WNW,294,6.0,12.0,56,0.00,,---,0.00,VWS V14.01,2013-03-02 22:32:00,
2013-03-02 17:37:00,33.0,19.0,29.89,NW,313,4.0,12.0,56,0.00,,---,0.00,VWS V14.01,2013-03-02 22:37:00,
2013-03-02 17:42:00,32.9,18.9,29.90,NW,309,6.0,14.0,56,0.00,,---,0.00,VWS V14.01,2013-03-02 22:42:00,
2013-03-02 17:47:00,32.7,18.8,29.90,WNW,302,4.0,14.0,56,0.00,,---,0.00,VWS V14.01,2013-03-02 22:47:00,
2013-03-02 17:52:00,32.6,18.7,29.90,NNW,340,7.0,17.0,56,0.00,,---,0.00,VWS V14.01,2013-03-02 22:52:00,
2013-03-02 17:57:00,32.6,19.1,29.90,West,263,9.0,17.0,57,0.00,,---,0.00,VWS V14.01,2013-03-02 22:57:00,
2013-03-02 18:00:00,32.0,18.9,29.92,North,355,5.0,11.0,58,0.00,,---,0.00,VWS V14.01,2013-03-02 23:00:00,
2013-03-02 18:02:00,32.5,19.0,29.90,NNW,342,4.0,6.0,57,0.00,,---,0.00,VWS V14.01,2013-03-02 23:02:00,
2013-03-02 18:07:00,32.4,18.9,29.90,North,355,6.0,8.0,57,0.00,,---,0.00,VWS V14.01,2013-03-02 23:07:00,
2013-03-02 18:12:00,32.4,19.3,29.90,NW,313,4.0,10.0,58,0.00,,---,0.00,VWS V14.01,2013-03-02 23:12:00,
2013-03-02 18:17:00,32.4,18.9,29.90,North,351,5.0,15.0,57,0.00,,---,0.00,VWS V14.01,2013-03-02 23:17:00,
2013-03-02 18:22:00,32.3,19.2,29.91,NNW,334,1.0,15.0,58,0.00,,---,0.00,VWS V14.01,2013-03-02 23:22:00,
2013-03-02 18:27:00,32.3,19.2,29.91,North,355,2.0,15.0,58,0.00,,---,0.00,VWS V14.01,2013-03-02 23:27:00,
2013-03-02 18:30:00,31.5,18.8,29.92,North,349,4.0,12.0,59,0.00,,---,0.00,VWS V14.01,2013-03-02 23:30:00,
2013-03-02 18:32:00,32.2,19.1,29.91,NW,318,6.0,10.0,58,0.00,,---,0.00,VWS V14.01,2013-03-02 23:32:00,
2013-03-02 18:37:00,32.2,19.5,29.91,NNW,338,6.0,11.0,59,0.00,,---,0.00,VWS V14.01,2013-03-02 23:37:00,
2013-03-02 18:42:00,32.2,19.1,29.91,NNW,334,9.0,11.0,58,0.00,,---,0.00,VWS V14.01,2013-03-02 23:42:00,
2013-03-02 18:47:00,32.1,19.4,29.91,NNW,332,3.0,11.0,59,0.00,,---,0.00,VWS V14.01,2013-03-02 23:47:00,
2013-03-02 18:52:00,32.0,19.3,29.92,NW,324,5.0,11.0,59,0.00,,---,0.00,VWS V14.01,2013-03-02 23:52:00,
2013-03-02 18:57:00,32.0,19.3,29.92,NW,318,9.0,11.0,59,0.00,,---,0.00,VWS V14.01,2013-03-02 23:57:00,
2013-03-02 19:00:00,31.2,18.2,29.92,NW,305,3.0,12.0,58,0.00,,---,0.00,VWS V14.01,2013-03-03 00:00:00,
2013-03-02 19:02:00,31.9,19.2,29.92,North,350,7.0,11.0,59,0.00,,---,0.00,VWS V14.01,2013-03-03 00:02:00,
2013-03-02 19:07:00,31.9,19.2,29.92,NW,312,4.0,11.0,59,0.00,,---,0.00,VWS V14.01,2013-03-03 00:07:00,
2013-03-02 19:12:00,31.8,19.1,29.92,NNW,345,8.0,11.0,59,0.00,,---,0.00,VWS V14.01,2013-03-03 00:12:00,
2013-03-02 19:17:00,31.7,18.6,29.92,North,350,4.0,11.0,58,0.00,,---,0.00,VWS V14.01,2013-03-03 00:17:00,
2013-03-02 19:22:00,31.7,18.6,29.92,NNW,346,5.0,12.0,58,0.00,,---,0.00,VWS V14.01,2013-03-03 00:22:00,
2013-03-02 19:27:00,31.6,18.5,29.92,NW,310,9.0,12.0,58,0.00,,---,0.00,VWS V14.01,2013-03-03 00:27:00,
2013-03-02 19:30:00,31.3,17.9,29.93,NW,321,4.0,15.0,57,0.00,,---,0.00,VWS V14.01,2013-03-03 00:30:00,
2013-03-02 19:32:00,31.5,18.4,29.92,NW,321,2.0,5.0,58,0.00,,---,0.00,VWS V14.01,2013-03-03 00:32:00,
2013-03-02 19:37:00,31.4,18.4,29.93,NNW,336,5.0,10.0,58,0.00,,---,0.00,VWS V14.01,2013-03-03 00:37:00,
2013-03-02 19:42:00,31.3,17.9,29.92,WNW,299,6.0,11.0,57,0.00,,---,0.00,VWS V14.01,2013-03-03 00:42:00,
2013-03-02 19:47:00,31.3,17.9,29.92,NNW,329,5.0,12.0,57,0.00,,---,0.00,VWS V14.01,2013-03-03 00:47:00,
2013-03-02 19:52:00,31.2,17.8,29.92,NNW,338,3.0,12.0,57,0.00,,---,0.00,VWS V14.01,2013-03-03 00:52:00,
2013-03-02 19:57:00,31.2,18.2,29.92,WNW,299,4.0,12.0,58,0.00,,---,0.00,VWS V14.01,2013-03-03 00:57:00,
2013-03-02 20:00:00,31.2,18.2,29.93,NNW,330,5.0,10.0,58,0.00,,---,0.00,VWS V14.01,2013-03-03 01:00:00,
2013-03-02 20:02:00,31.1,17.7,29.92,NNW,328,3.0,6.0,57,0.00,,---,0.00,VWS V14.01,2013-03-03 01:02:00,
2013-03-02 20:07:00,31.1,17.7,29.92,NW,304,6.0,11.0,57,0.00,,---,0.00,VWS V14.01,2013-03-03 01:07:00,
2013-03-02 20:12:00,31.2,17.8,29.93,WNW,294,9.0,15.0,57,0.00,,---,0.00,VWS V14.01,2013-03-03 01:12:00,
2013-03-02 20:17:00,31.2,17.8,29.92,West,273,10.0,15.0,57,0.00,,---,0.00,VWS V14.01,2013-03-03 01:17:00,
2013-03-02 20:22:00,31.2,17.8,29.93,WNW,299,6.0,15.0,57,0.00,,---,0.00,VWS V14.01,2013-03-03 01:22:00,
2013-03-02 20:27:00,31.3,17.9,29.93,NNW,334,5.0,15.0,57,0.00,,---,0.00,VWS V14.01,2013-03-03 01:27:00,
2013-03-02 20:30:00,31.2,18.2,29.94,WNW,302,9.0,14.0,58,0.00,,---,0.00,VWS V14.01,2013-03-03 01:30:00,
2013-03-02 20:32:00,31.3,17.9,29.93,NNW,336,2.0,8.0,57,0.00,,---,0.00,VWS V14.01,2013-03-03 01:32:00,
2013-03-02 20:37:00,31.2,17.8,29.93,NNW,334,3.0,8.0,57,0.00,,---,0.00,VWS V14.01,2013-03-03 01:37:00,
2013-03-02 20:42:00,31.2,18.2,29.93,West,270,0.0,10.0,58,0.00,,---,0.00,VWS V14.01,2013-03-03 01:42:00,
2013-03-02 20:47:00,31.2,18.2,29.93,NNW,327,4.0,10.0,58,0.00,,---,0.00,VWS V14.01,2013-03-03 01:47:00,
2013-03-02 20:52:00,31.2,18.2,29.93,North,350,3.0,10.0,58,0.00,,---,0.00,VWS V14.01,2013-03-03 01:52:00,
2013-03-02 20:57:00,31.2,17.8,29.93,NNW,338,5.0,10.0,57,0.00,,---,0.00,VWS V14.01,2013-03-03 01:57:00,
2013-03-02 21:00:00,31.2,19.0,29.94,NW,308,10.0,17.0,60,0.00,,---,0.00,VWS V14.01,2013-03-03 02:00:00,
2013-03-02 21:02:00,31.2,17.8,29.93,WNW,303,10.0,12.0,57,0.00,,---,0.00,VWS V14.01,2013-03-03 02:02:00,
2013-03-02 21:07:00,31.3,18.2,29.93,North,355,3.0,14.0,58,0.00,,---,0.00,VWS V14.01,2013-03-03 02:07:00,
2013-03-02 21:12:00,31.3,18.2,29.93,NNW,331,3.0,14.0,58,0.00,,---,0.00,VWS V14.01,2013-03-03 02:12:00,
2013-03-02 21:17:00,31.3,18.2,29.93,NNW,344,4.0,14.0,58,0.00,,---,0.00,VWS V14.01,2013-03-03 02:17:00,
2013-03-02 21:22:00,31.3,18.2,29.94,West,269,3.0,14.0,58,0.00,,---,0.00,VWS V14.01,2013-03-03 02:22:00,
2013-03-02 21:27:00,31.3,18.2,29.94,NW,316,4.0,14.0,58,0.00,,---,0.00,VWS V14.01,2013-03-03 02:27:00,
2013-03-02 21:30:00,31.0,19.9,29.94,WNW,288,5.0,14.0,63,0.00,,---,0.00,VWS V14.01,2013-03-03 02:30:00,
2013-03-02 21:32:00,31.3,18.6,29.94,NW,304,13.0,17.0,59,0.00,,---,0.00,VWS V14.01,2013-03-03 02:32:00,
2013-03-02 21:37:00,31.3,19.0,29.94,NNW,342,9.0,17.0,60,0.00,,---,0.00,VWS V14.01,2013-03-03 02:37:00,
2013-03-02 21:42:00,31.3,18.6,29.94,NNW,348,5.0,17.0,59,0.00,,---,0.00,VWS V14.01,2013-03-03 02:42:00,
2013-03-02 21:47:00,31.2,18.5,29.94,NNW,342,6.0,17.0,59,0.00,,---,0.00,VWS V14.01,2013-03-03 02:47:00,
2013-03-02 21:52:00,31.2,19.0,29.94,NW,317,12.0,17.0,60,0.00,,---,0.00,VWS V14.01,2013-03-03 02:52:00,
2013-03-02 21:57:00,31.2,19.0,29.94,NNW,332,7.0,17.0,60,0.00,,---,0.00,VWS V14.01,2013-03-03 02:57:00,
2013-03-02 22:00:00,30.9,18.7,29.93,NNW,333,6.0,17.0,60,0.00,,---,0.00,VWS V14.01,2013-03-03 03:00:00,
2013-03-02 22:02:00,31.2,19.0,29.94,NW,323,4.0,10.0,60,0.00,,---,0.00,VWS V14.01,2013-03-03 03:02:00,
2013-03-02 22:07:00,31.2,19.3,29.94,WNW,287,5.0,10.0,61,0.00,,---,0.00,VWS V14.01,2013-03-03 03:07:00,
2013-03-02 22:12:00,31.1,19.6,29.94,NE,46,3.0,11.0,62,0.00,,---,0.00,VWS V14.01,2013-03-03 03:12:00,
2013-03-02 22:17:00,31.1,19.6,29.94,WNW,302,7.0,12.0,62,0.00,,---,0.00,VWS V14.01,2013-03-03 03:17:00,
2013-03-02 22:22:00,31.0,19.9,29.94,NNW,339,3.0,12.0,63,0.00,,---,0.00,VWS V14.01,2013-03-03 03:22:00,
2013-03-02 22:27:00,31.0,19.9,29.94,NW,321,4.0,14.0,63,0.00,,---,0.00,VWS V14.01,2013-03-03 03:27:00,
2013-03-02 22:30:00,30.7,18.1,29.93,NNW,340,8.0,15.0,59,0.00,,---,0.00,VWS V14.01,2013-03-03 03:30:00,
2013-03-02 22:32:00,31.0,19.9,29.94,NNW,336,2.0,11.0,63,0.00,,---,0.00,VWS V14.01,2013-03-03 03:32:00,
2013-03-02 22:37:00,30.9,19.8,29.94,NW,322,4.0,11.0,63,0.00,,---,0.00,VWS V14.01,2013-03-03 03:37:00,
2013-03-02 22:42:00,30.9,19.4,29.94,NW,306,9.0,17.0,62,0.00,,---,0.00,VWS V14.01,2013-03-03 03:42:00,
2013-03-02 22:47:00,30.9,19.4,29.93,WNW,284,6.0,17.0,62,0.00,,---,0.00,VWS V14.01,2013-03-03 03:47:00,
2013-03-02 22:52:00,31.0,19.1,29.93,WNW,297,7.0,17.0,61,0.00,,---,0.00,VWS V14.01,2013-03-03 03:52:00,
2013-03-02 22:57:00,30.9,19.0,29.93,NNW,331,6.0,17.0,61,0.00,,---,0.00,VWS V14.01,2013-03-03 03:57:00,
2013-03-02 23:00:00,30.4,18.2,29.93,NW,304,6.0,14.0,60,0.00,,---,0.00,VWS V14.01,2013-03-03 04:00:00,
2013-03-02 23:02:00,30.9,18.7,29.93,North,351,6.0,11.0,60,0.00,,---,0.00,VWS V14.01,2013-03-03 04:02:00,
2013-03-02 23:07:00,30.8,18.6,29.93,NW,324,4.0,11.0,60,0.00,,---,0.00,VWS V14.01,2013-03-03 04:07:00,
2013-03-02 23:12:00,30.8,18.2,29.93,North,5,14.0,15.0,59,0.00,,---,0.00,VWS V14.01,2013-03-03 04:12:00,
2013-03-02 23:17:00,30.8,18.2,29.93,WNW,296,6.0,15.0,59,0.00,,---,0.00,VWS V14.01,2013-03-03 04:17:00,
2013-03-02 23:22:00,30.7,17.7,29.93,NNW,347,9.0,15.0,58,0.00,,---,0.00,VWS V14.01,2013-03-03 04:22:00,
2013-03-02 23:27:00,30.7,18.1,29.93,NNW,336,2.0,15.0,59,0.00,,---,0.00,VWS V14.01,2013-03-03 04:27:00,
2013-03-02 23:30:00,30.2,18.8,29.92,WNW,295,6.0,17.0,62,0.00,,---,0.00,VWS V14.01,2013-03-03 04:30:00,
2013-03-02 23:32:00,30.6,18.0,29.93,NNW,344,6.0,11.0,59,0.00,,---,0.00,VWS V14.01,2013-03-03 04:32:00,
2013-03-02 23:37:00,30.6,18.0,29.93,WNW,294,5.0,11.0,59,0.00,,---,0.00,VWS V14.01,2013-03-03 04:37:00,
2013-03-02 23:42:00,30.6,18.0,29.93,WNW,300,8.0,11.0,59,0.00,,---,0.00,VWS V14.01,2013-03-03 04:42:00,
2013-03-02 23:47:00,30.6,18.4,29.93,NW,313,3.0,11.0,60,0.00,,---,0.00,VWS V14.01,2013-03-03 04:47:00,
2013-03-02 23:52:00,30.4,18.2,29.93,NW,309,8.0,14.0,60,0.00,,---,0.00,VWS V14.01,2013-03-03 04:52:00,
2013-03-02 23:57:00,30.4,18.2,29.93,NW,322,6.0,14.0,60,0.00,,---,0.00,VWS V14.01,2013-03-03 04:57:00,